Starlink 1958

operational
NORAD ID: 47559 Int'l Des: 2021-009 Owner: SPXS Country: US Constellation: starlink
LEOCIRCULARSTARLINK_TYPE

Über Starlink 1958

Beschreibung wird geladen...

Live-Position

3D-Globus wird geladen...

Nächste Überflüge

Höhenverlauf

Altitude vs Time

uPlot chart will show altitude changes over time

Zweizeiliger Elementsatz

1 47559U 21009M 25293.22320684 -.00001239 00000-0 -64278-4 0 9998
2 47559 53.0564 272.1991 0001628 91.8627 268.2549 15.06403294259901
Epoch: 20. Okt. 2025 • Age: 20 hours

Aktueller Status

Höhe 549.2 km
Geschwindigkeit 7.59 km/s
Subsatellitenpunkt 36.37°N, 9.61°E
Startdatum 4. Feb. 2021
Alter 4.7 years
Typ internet

Technische Details

Klassifizierung Payload
Masse 260.00 kg
Trockenmasse 248.00 kg
Gesamtmasse 260.00 kg
Länge 0.20 m
Durchmesser 2.80 m
Spannweite 9.00 m
Form Box + pan
Hersteller SPXS
Bus-Typ Starlink
Phasenstatus In Orbit
Besitzer/Staat SPXS/US

Große Konstellationen

Loading constellations...